Hourly Weather Hrabniak

Today, 6 May, Thursday

Time Temperature Precipitation Wind Pressure Humidity
00:00 +7°C° 0.2 mm 6 mps 731 mmHg 93%
01:00 +5°C° 0.2 mm 6 mps 732 mmHg 93%
02:00 +4°C° 0.2 mm 7 mps 732 mmHg 93%
03:00 +3°C° 0.1 mm 7 mps 733 mmHg 92%
04:00 +3°C° 0.1 mm 7 mps 734 mmHg 91%
05:00 +3°C° 0.1 mm 6 mps 734 mmHg 91%
06:00 +3°C° 0 mm 7 mps 735 mmHg 87%
07:00 +3°C° 0 mm 7 mps 736 mmHg 82%
08:00 +2°C° 0 mm 8 mps 737 mmHg 78%
09:00 +4°C° 0 mm 8 mps 737 mmHg 69%
10:00 +5°C° 0 mm 9 mps 737 mmHg 60%
11:00 +7°C° 0 mm 9 mps 738 mmHg 51%
12:00 +7°C° 0 mm 9 mps 738 mmHg 48%
13:00 +8°C° 0 mm 9 mps 738 mmHg 45%
14:00 +10°C° 0 mm 9 mps 738 mmHg 41%
15:00 +10°C° 0 mm 8 mps 738 mmHg 45%
16:00 +10°C° 0 mm 7 mps 739 mmHg 48%
17:00 +10°C° 0 mm 6 mps 739 mmHg 51%
18:00 +9°C° 0 mm 5 mps 739 mmHg 56%
19:00 +7°C° 0 mm 4 mps 738 mmHg 62%
20:00 +7°C° 0 mm 3 mps 738 mmHg 67%
21:00 +6°C° 0 mm 4 mps 738 mmHg 69%
22:00 +6°C° 0 mm 4 mps 738 mmHg 71%
23:00 +6°C° 0 mm 4 mps 738 mmHg 73%

Tomorrow, 7 May, Friday

Time Temperature Precipitation Wind Pressure Humidity
00:00 +5°C° 0.3 mm 5 mps 738 mmHg 79%
01:00 +4°C° 0.3 mm 6 mps 738 mmHg 85%
02:00 +4°C° 0.3 mm 6 mps 737 mmHg 91%
03:00 +4°C° 0.3 mm 6 mps 737 mmHg 92%
04:00 +4°C° 0.3 mm 6 mps 737 mmHg 92%
05:00 +6°C° 0.3 mm 5 mps 736 mmHg 92%
06:00 +6°C° 0.1 mm 5 mps 736 mmHg 92%
07:00 +6°C° 0.1 mm 5 mps 737 mmHg 92%
08:00 +6°C° 0.1 mm 5 mps 737 mmHg 91%
09:00 +6°C° 0.3 mm 5 mps 737 mmHg 91%
10:00 +6°C° 0.3 mm 4 mps 737 mmHg 91%
11:00 +6°C° 0.3 mm 4 mps 738 mmHg 91%
12:00 +6°C° 0.2 mm 4 mps 738 mmHg 88%
13:00 +7°C° 0.2 mm 4 mps 738 mmHg 84%
14:00 +7°C° 0.2 mm 4 mps 739 mmHg 81%
15:00 +8°C° 0.2 mm 4 mps 739 mmHg 76%
16:00 +8°C° 0.2 mm 5 mps 739 mmHg 71%
17:00 +9°C° 0.2 mm 5 mps 740 mmHg 66%
18:00 +7°C° 0.1 mm 4 mps 740 mmHg 70%
19:00 +7°C° 0.1 mm 3 mps 741 mmHg 75%
20:00 +5°C° 0.1 mm 2 mps 742 mmHg 79%
21:00 +5°C° 0 mm 2 mps 742 mmHg 81%
22:00 +5°C° 0 mm 1 mps 743 mmHg 83%
23:00 +4°C° 0 mm 1 mps 743 mmHg 85%

Day after tomorrow, 8 May, Saturday

Time Temperature Precipitation Wind Pressure Humidity
00:00 +4°C° 0 mm 1 mps 743 mmHg 86%
01:00 +3°C° 0 mm 2 mps 744 mmHg 86%
02:00 +2°C° 0 mm 2 mps 744 mmHg 87%
03:00 +2°C° 0 mm 2 mps 744 mmHg 87%
04:00 +2°C° 0 mm 2 mps 744 mmHg 87%
05:00 +2°C° 0 mm 2 mps 744 mmHg 88%
06:00 +3°C° 0 mm 3 mps 744 mmHg 83%
07:00 +4°C° 0 mm 3 mps 744 mmHg 78%
08:00 +6°C° 0 mm 4 mps 744 mmHg 73%
09:00 +7°C° 0 mm 4 mps 744 mmHg 69%
10:00 +8°C° 0 mm 5 mps 744 mmHg 64%
11:00 +9°C° 0 mm 5 mps 744 mmHg 60%
12:00 +9°C° 0.2 mm 5 mps 743 mmHg 67%
13:00 +8°C° 0.2 mm 4 mps 743 mmHg 75%
14:00 +8°C° 0.2 mm 4 mps 742 mmHg 82%
15:00 +7°C° 0.4 mm 4 mps 742 mmHg 85%
16:00 +7°C° 0.4 mm 4 mps 741 mmHg 89%
17:00 +7°C° 0.4 mm 4 mps 740 mmHg 92%
18:00 +7°C° 0.1 mm 4 mps 740 mmHg 93%
19:00 +8°C° 0.1 mm 3 mps 740 mmHg 94%
20:00 +8°C° 0.1 mm 3 mps 739 mmHg 96%
21:00 +9°C° 0.2 mm 3 mps 739 mmHg 96%
22:00 +9°C° 0.2 mm 3 mps 739 mmHg 96%
23:00 +10°C° 0.2 mm 3 mps 739 mmHg 96%

9 May, Sunday

Time Temperature Precipitation Wind Pressure Humidity
00:00 +10°C° 0 mm 3 mps 738 mmHg 96%
01:00 +10°C° 0 mm 3 mps 738 mmHg 96%
02:00 +10°C° 0 mm 3 mps 738 mmHg 96%

10 May, Monday

Time Temperature Precipitation Wind Pressure Humidity

11 May, Tuesday

Time Temperature Precipitation Wind Pressure Humidity
Show more

We Need Your Consent

Meteoprog and our Service Providers may store and access personal data such as cookies, device identifiers or other similar technologies on your device and process such data to personalise content and ads, as well as provide social media features and to analyse the traffic.

  • Store and/or access information on your device

    Cookies, device identifiers or other information can be stored or accessed on your device for the purposes indicated above.

  • Personalised ads and content, ad and content measurement, audience insights, and products development

    Ads and content can be personalised based on a profile. More data can be added to better personalise ads and content. Ad and content performance can be measured. Insights about the audience who saw the ads and content can be derived. Such data can be used to develop or improve user’s experience, systems and software.

By clicking ‘I Agree’ you will allow the use of indicated cookies, device identifiers, web beacons or other similar technologies. Your settings can be changed in the browser on your device.

For certain purposes, legitimate interests may be relied on, rather than consent. You can read more about this in our Privacy and Cookie Policy.